Terminal Aerodrome Forecast
Issued by NWS

Home | Current Version | Previous Version | Text Only | Print | Product List | Glossary On
Versions: 1 2 3 4 5 6 7 8 9 10 11 12 13 14 15 16 17 18 19 20
000
FTUS41 KCAR 260900 AAB
TAFBHB
TAF AMD
KBHB 260924Z 2609/2706 22003KT P6SM SKC
      TEMPO 2609/2611 1 1/2SM BR
     FM261700 22011KT P6SM SCT070
     FM262300 20009KT P6SM BKN070
      AMD LTD TO CLD VIS AND WIND=

USA.gov is the U.S. government's official web portal to all federal, state and local government web resources and services.